Reno - Stead, NV

4:43 PM PDT on May 22, 2017 (GMT -0700)
Reno - Stead

Weather History for KRTS - April, 2014

Change the Weather History Date:

Friday, April 25, 2014

  Actual Average (KRNO) Record (KRNO)
Temperature  
Mean Temperature 38 °F -  
Max Temperature 44 °F 62 °F 84 °F (1927)
Min Temperature 32 °F 34 °F 19 °F (1944)
Degree Days  
Heating Degree Days 27    
Moisture  
Dew Point 32 °F    
Average Humidity 80    
Maximum Humidity 100    
Minimum Humidity 53    
Precipitation  
Precipitation 0.09 in - - ()
Sea Level Pressure  
Sea Level Pressure 29.76 in    
Wind  
Wind Speed 9 mph (NW)    
Max Wind Speed 17 mph    
Max Gust Speed 28 mph    
Visibility 8 miles    
Events Rain , Snow    
Averages and records for this station are not official NWS values.
T = Trace of Precipitation, MM = Missing Value Source: NWS Daily Summary

Daily Weather History Graph

Daily Weather History Graph

Search for Another Location

Airport or City:

Trip Planner

Search our weather history database for the weather conditions in past years. The results will help you decide how hot, cold, wet, or windy it might be!

Date:

Astronomy

Apr. 25, 2014 Rise Set
Actual Time 6:07 AM PDT 7:47 PM PDT
Civil Twilight 5:39 AM PDT 8:16 PM PDT
Nautical Twilight 5:04 AM PDT 8:51 PM PDT
Astronomical Twilight 4:27 AM PDT 9:28 PM PDT
Moon 3:58 AM PDT (4/25) 4:16 PM PDT (4/25)
Length of Visible Light 14h 37m
Length of Day
13h 39m
Waning Crescent, 14% of the Moon is Illuminated
Apr 25
Waning Crescent
Apr 28
New
May 6
First Quarter
May 14
Full
May 21
Last Quarter

Hourly Weather History & Observations

Time (PDT) Temp. Windchill Dew Point Humidity Pressure Visibility Wind Dir Wind Speed Gust Speed Precip Events Conditions
12:15 AM 44.6 °F 41.4 °F 28.4 °F 53% 29.89 in 10.0 mi West 5.8 mph 21.9 mph N/A   Partly Cloudy
12:35 AM 44.6 °F 43.1 °F 28.4 °F 53% 29.88 in 10.0 mi WNW 3.5 mph - N/A   Scattered Clouds
12:55 AM 44.6 °F 41.4 °F 30.2 °F 57% 29.88 in 10.0 mi West 5.8 mph - N/A   Mostly Cloudy
1:15 AM 44.6 °F 41.4 °F 32.0 °F 61% 29.88 in 10.0 mi WSW 5.8 mph - N/A   Overcast
1:35 AM 44.6 °F 39.7 °F 32.0 °F 61% 29.86 in 10.0 mi WSW 9.2 mph - N/A   Mostly Cloudy
1:55 AM 44.6 °F 38.1 °F 32.0 °F 61% 29.86 in 10.0 mi WSW 13.8 mph 19.6 mph N/A   Mostly Cloudy
2:10 AM 44.6 °F 38.4 °F 32.0 °F 61% 29.85 in 10.0 mi WSW 12.7 mph 27.6 mph N/A   Overcast
2:35 AM 44.6 °F 37.8 °F 32.0 °F 61% 29.84 in 10.0 mi WSW 15.0 mph 21.9 mph N/A   Overcast
2:55 AM 44.6 °F 38.1 °F 32.0 °F 61% 29.83 in 10.0 mi WSW 13.8 mph - N/A   Overcast
3:15 AM 44.6 °F 38.4 °F 32.0 °F 61% 29.82 in 10.0 mi WSW 12.7 mph - N/A   Overcast
3:35 AM 41.0 °F 35.2 °F 32.0 °F 70% 29.82 in 10.0 mi NW 9.2 mph - N/A   Overcast
3:55 AM 41.0 °F 35.8 °F 32.0 °F 70% 29.82 in 10.0 mi North 8.1 mph - N/A   Overcast
4:15 AM 41.0 °F 39.0 °F 32.0 °F 70% 29.81 in 10.0 mi NNW 3.5 mph - N/A   Overcast
4:35 AM 41.0 °F 36.4 °F 32.0 °F 70% 29.80 in 10.0 mi North 6.9 mph - N/A   Overcast
4:55 AM 39.2 °F 33.6 °F 32.0 °F 75% 29.80 in 10.0 mi NW 8.1 mph - N/A Rain Light Rain
5:15 AM 39.2 °F 32.0 °F 33.8 °F 81% 29.81 in 10.0 mi North 11.5 mph - N/A Rain Light Rain
5:35 AM 37.4 °F 31.4 °F 33.8 °F 87% 29.80 in 7.0 mi NW 8.1 mph - N/A Rain Light Rain
5:50 AM 37.4 °F 27.8 °F 32.0 °F 81% 29.79 in 10.0 mi NW 17.3 mph 20.7 mph N/A Rain Light Rain
6:15 AM 35.6 °F 27.1 °F 32.0 °F 87% 29.79 in 10.0 mi NW 12.7 mph - N/A Rain Light Rain
6:35 AM 35.6 °F 28.0 °F 32.0 °F 87% 29.79 in 10.0 mi NW 10.4 mph - N/A   Mostly Cloudy
6:55 AM 37.4 °F 31.4 °F 32.0 °F 81% 29.78 in 10.0 mi NW 8.1 mph - N/A   Mostly Cloudy
7:15 AM 37.4 °F 34.9 °F 32.0 °F 81% 29.79 in 10.0 mi WNW 3.5 mph - N/A   Overcast
7:35 AM 37.4 °F 31.4 °F 32.0 °F 81% 29.79 in 5.0 mi WNW 8.1 mph - N/A Rain Light Rain
7:55 AM 35.6 °F 29.2 °F 32.0 °F 87% 29.80 in 5.0 mi NW 8.1 mph - 0.01 in Rain Light Rain
8:15 AM 35.6 °F 28.0 °F 32.0 °F 87% 29.80 in 5.0 mi NW 10.4 mph - N/A Rain Light Rain
8:35 AM 35.6 °F 28.0 °F 32.0 °F 87% 29.80 in 4.0 mi NW 10.4 mph - 0.01 in Rain Light Rain
8:55 AM 37.4 °F 32.1 °F 33.8 °F 87% 29.80 in 5.0 mi NW 6.9 mph - 0.01 in Rain Light Rain
9:15 AM 37.4 °F 33.8 °F 33.8 °F 87% 29.79 in 8.0 mi NNW 4.6 mph - 0.01 in Rain Light Rain
9:35 AM 39.2 °F 31.2 °F 32.0 °F 75% 29.79 in 10.0 mi WNW 13.8 mph - 0.01 in Rain Light Rain
9:55 AM 37.4 °F 29.8 °F 32.0 °F 81% 29.78 in 10.0 mi NW 11.5 mph - 0.01 in Rain Light Rain
10:15 AM 39.2 °F 30.5 °F 32.0 °F 75% 29.78 in 10.0 mi NW 16.1 mph - N/A Rain Light Rain
10:35 AM 39.2 °F 30.8 °F 32.0 °F 75% 29.78 in 10.0 mi WNW 15.0 mph 21.9 mph N/A Rain Light Rain
10:55 AM 39.2 °F 31.2 °F 32.0 °F 75% 29.78 in 10.0 mi WNW 13.8 mph 18.4 mph N/A Rain Light Rain
11:15 AM 39.2 °F 30.2 °F 32.0 °F 75% 29.77 in 10.0 mi WNW 17.3 mph 24.2 mph N/A   Partly Cloudy
11:35 AM 39.2 °F 31.2 °F 32.0 °F 75% 29.78 in 10.0 mi West 13.8 mph - N/A Rain Light Rain
11:55 AM 41.0 °F 33.9 °F 32.0 °F 70% 29.77 in 10.0 mi NW 12.7 mph 20.7 mph N/A Rain Light Rain
12:15 PM 41.0 °F 32.8 °F 32.0 °F 70% 29.75 in 10.0 mi NW 16.1 mph 21.9 mph N/A   Scattered Clouds
12:35 PM 42.8 °F 36.6 °F 30.2 °F 61% 29.74 in 10.0 mi WNW 11.5 mph 21.9 mph N/A   Scattered Clouds
12:55 PM 42.8 °F 35.1 °F 28.4 °F 57% 29.74 in 10.0 mi NW 16.1 mph - N/A   Partly Cloudy
1:15 PM 41.0 °F 33.5 °F 26.6 °F 57% 29.73 in 10.0 mi WNW 13.8 mph 19.6 mph N/A   Partly Cloudy
1:35 PM 41.0 °F 34.3 °F 28.4 °F 61% 29.73 in 10.0 mi WNW 11.5 mph 20.7 mph N/A Rain Light Rain
1:55 PM 41.0 °F 35.2 °F 32.0 °F 70% 29.73 in 10.0 mi NW 9.2 mph - N/A   Scattered Clouds
2:15 PM 39.2 °F 31.6 °F 32.0 °F 75% 29.73 in 10.0 mi WNW 12.7 mph 16.1 mph N/A Rain Light Rain
2:35 PM 37.4 °F 28.9 °F 32.0 °F 81% 29.73 in 6.0 mi West 13.8 mph - N/A Rain Light Rain
2:55 PM 37.4 °F 30.8 °F 33.8 °F 87% 29.73 in 5.0 mi West 9.2 mph - N/A Rain Light Rain
3:15 PM 35.6 °F 29.9 °F 32.0 °F 87% 29.73 in 4.0 mi WNW 6.9 mph - N/A Snow Light Snow
3:35 PM 35.6 °F 29.2 °F 33.8 °F 93% 29.72 in 4.0 mi NW 8.1 mph - 0.02 in Rain Light Rain
3:55 PM 35.6 °F 30.7 °F 32.0 °F 87% 29.72 in 6.0 mi WNW 5.8 mph - 0.02 in Rain Light Rain
4:15 PM 37.4 °F 32.1 °F 33.8 °F 87% 29.72 in 5.0 mi WNW 6.9 mph - 0.01 in Rain Light Rain
4:35 PM 35.6 °F 27.5 °F 33.8 °F 93% 29.71 in 4.0 mi WNW 11.5 mph - 0.02 in Rain Light Rain
4:55 PM 35.6 °F 29.2 °F 32.0 °F 87% 29.71 in 2.0 mi NNW 8.1 mph - 0.03 in Snow Light Snow
5:15 PM 35.6 °F 28.6 °F 33.8 °F 93% 29.71 in 10.0 mi NNW 9.2 mph - N/A   Partly Cloudy
5:35 PM 35.6 °F 29.2 °F 33.8 °F 93% 29.70 in 10.0 mi North 8.1 mph - N/A   Scattered Clouds
5:55 PM 37.4 °F 32.1 °F 32.0 °F 81% 29.70 in 10.0 mi NNW 6.9 mph - N/A   Partly Cloudy
6:15 PM 37.4 °F 32.8 °F 32.0 °F 81% 29.70 in 10.0 mi North 5.8 mph - N/A   Partly Cloudy
6:35 PM 37.4 °F 29.8 °F 32.0 °F 81% 29.70 in 10.0 mi North 11.5 mph - N/A Rain Light Rain
6:55 PM 35.6 °F 26.6 °F 32.0 °F 87% 29.69 in 10.0 mi North 13.8 mph - N/A   Mostly Cloudy
7:15 PM 35.6 °F 27.5 °F 32.0 °F 87% 29.69 in 10.0 mi North 11.5 mph - N/A   Overcast
7:35 PM 35.6 °F 26.6 °F 32.0 °F 87% 29.68 in 10.0 mi North 13.8 mph - N/A   Overcast
7:55 PM 33.8 °F 24.8 °F 32.0 °F 93% 29.69 in 10.0 mi North 12.7 mph - N/A   Overcast
8:15 PM 35.6 °F 29.9 °F 32.0 °F 87% 29.70 in 10.0 mi NNW 6.9 mph - N/A   Overcast
8:35 PM 33.8 °F 27.0 °F 32.0 °F 93% 29.70 in 5.0 mi NNW 8.1 mph - N/A Snow Light Snow
8:55 PM 32.0 °F 25.6 °F 32.0 °F 100% 29.71 in 4.0 mi NNW 6.9 mph - N/A Snow Light Snow
9:15 PM 32.0 °F 26.4 °F 32.0 °F 100% 29.71 in 4.0 mi NNW 5.8 mph - N/A Snow Light Snow
9:35 PM 32.0 °F 27.5 °F 32.0 °F 100% 29.72 in 3.0 mi NW 4.6 mph - N/A Snow Light Snow
9:55 PM 32.0 °F - 32.0 °F 100% 29.72 in 4.0 mi Calm Calm - N/A Snow Light Snow
10:15 PM 32.0 °F - 32.0 °F 100% 29.71 in 3.0 mi Calm Calm - 0.01 in Snow Light Snow
10:35 PM 32.0 °F 27.5 °F 32.0 °F 100% 29.71 in 8.0 mi WNW 4.6 mph - 0.01 in Rain Light Rain
10:50 PM 33.8 °F 28.6 °F 32.0 °F 93% 29.72 in 10.0 mi West 5.8 mph - 0.01 in   Mostly Cloudy
11:15 PM 33.8 °F 28.6 °F 32.0 °F 93% 29.72 in 10.0 mi WNW 5.8 mph - N/A   Overcast
11:35 PM 33.8 °F 27.7 °F 32.0 °F 93% 29.72 in 10.0 mi West 6.9 mph - N/A Rain Light Rain
11:55 PM 32.0 °F 26.4 °F 32.0 °F 100% 29.72 in 7.0 mi WNW 5.8 mph - N/A Snow Light Snow